AirNav   Phillips 66 Aviation Fuel
 
 325 users online  

PAVA Chevak Airport
Chevak, Alaska, USA


FAA INFORMATION EFFECTIVE 26 APRIL 2018

Location

FAA Identifier: VAK
Lat/Long: 61-32-27.0400N / 165-36-03.2100W
61-32.450667N / 165-36.053500W
61.5408444 / -165.6008917
(estimated)
Elevation: 48 ft. / 15 m
Variation: 13E (2005)
From city: 1 mile N of CHEVAK, AK
Time zone: UTC -8 (UTC -9 during Standard Time)
Zip code: 99563

Airport Operations

Airport use: Open to the public
Activation date: 08/1973
Control tower: no
ARTCC: ANCHORAGE CENTER
FSS: KENAI FLIGHT SERVICE STATION [907-283-8469]
NOTAMs facility: VAK (NOTAM-D service available)
Attendance: UNATNDD
Wind indicator: lighted
Segmented circle: yes
Lights: ACTVT MIRL RY 02/20 - 122.8. ACTVT REIL & PAPI RYS 02 & 20 - CTAF.
Beacon: white-green (lighted land airport)
NSTD WHITE FLASHING ROTG BCN. ACTVT - CTAF

Airport Communications

CTAF: 123.0
UNICOM: 122.8
WX AWOS-3: 120.625 (907-858-7600)
WX AWOS-3P at HPB (16 nm W): 135.1 (907-758-4211)
WX AWOS-3P at SCM (18 nm N): 118.425 (907-558-5501)
WX AWOS-3 at CZF (19 nm NW): PHONE 907-552-2869
  • APCH/DEP SVC PRVDD BY ANCHORAGE ARTCC ON FREQS 124.5 (CAPE ROMANZOF RCAG).

Nearby radio navigation aids

VOR radial/distance  VOR name  Freq  Var
HPBr071/15.3HOOPER BAY VOR/DME115.2013E

 
NDB name  Hdg/Dist  Freq  Var  ID
CAPE ROMANZOF134/18.327511ECZF -.-. --.. ..-.

Airport Services

Airframe service: NONE
Powerplant service: NONE
Bottled oxygen: NONE
Bulk oxygen: NONE

Runway Information

Runway 2/20

Dimensions: 3220 x 75 ft. / 981 x 23 m
Surface: gravel, in fair condition
RY USED AS ROAD. FIRST 200 FT OF RY02 ROUGH.
Runway edge lights: medium intensity
RUNWAY 2  RUNWAY 20
Latitude: 61-32.229112N61-32.672258N
Longitude: 165-36.355205W165-35.751808W
Elevation: 60.7 ft.60.7 ft.
Traffic pattern: leftleft
Runway heading: 020 magnetic, 033 true200 magnetic, 213 true
Visual slope indicator: 4-light PAPI on left (3.00 degrees glide path)4-light PAPI on left (3.00 degrees glide path)
Runway end identifier lights: yesyes
Touchdown point: yes, no lightsyes, no lights

Airport Ownership and Management from official FAA records

Ownership: Publicly-owned
Owner: ALASKA DOT&PF CENTRAL REGION
PO BOX 196900
ANCHORAGE, AK 99519-6900
Phone 907-269-0749
Manager: LAWRENCE DAVIS
2016 AIRPORT ROAD
BETHEL, AK 99559
Phone (907) 543-2498
907-543-2498

Additional Remarks

STRONG CROSS WIND AT THIS LCTN.
RY CONDITION NOT MONITORED; RECOMMEND VISUAL INSPECTION PRIOR TO USING.
WX CAMERAS AVBL ON INTERNET AT HTTP://AVCAMS.FAA.GOV

Instrument Procedures

NOTE: All procedures below are presented as PDF files. If you need a reader for these files, you should download the free Adobe Reader.

NOT FOR NAVIGATION. Please procure official charts for flight.
FAA instrument procedures published for use from 26 April 2018 at 901Z to 24 May 2018 at 0900Z.

 
IAPs - Instrument Approach Procedures
RNAV (GPS) RWY 02   download (190KB)
RNAV (GPS) RWY 20   download (199KB)
NOTE: Special Alternate Minimums apply   download (88KB)
NOTE: Special Take-Off Minimums/Departure Procedures apply   download (210KB)

Other nearby airports with instrument procedures:

PAHP - Hooper Bay Airport (16 nm W)
PACM - Scammon Bay Airport (18 nm N)
PACZ - Cape Romanzof LRRS Airport (19 nm NW)
PAOO - Toksook Bay Airport (62 nm S)
PAMO - Mountain Village Airport (64 nm NE)
 
Loc | Ops | Rwys | IFR | FBO | Links
Com | Nav | Svcs | Stats | Notes

Crowley
 
Area around PAVA (Chevak Airport)
 
Road maps at: MapQuest Bing Google
 
Aerial photo
WARNING: Photo may not be current or correct
Aerial photo of PAVA (Chevak Airport)
Photo taken 08-May-2005

Do you have a better or more recent aerial photo of Chevak Airport that you would like to share? If so, please send us your photo.

 
Sectional chart

 
Airport distance calculator
Flying to Chevak Airport? Find the distance to fly.

From to PAVA

Sunrise and sunset
Times for 22-May-2018
 Local
(UTC-8)
 Zulu
(UTC)
Morning civil twilight04:3112:31
Sunrise05:5513:55
Sunset00:0308:03
Evening civil twilight01:2709:27

Current date and time
Zulu (UTC)  22-May-2018 08:28:40
Local (UTC-8)  22-May-2018 00:28:40
 
METAR
PAVA 220756Z AUTO 35019KT 10SM FEW004 02/01 A2970 RMK AO2 SLP141 T00170006 400890017 FZRANO
PAHP 
16nm W 
220556Z AUTO 33020G25KT 9SM OVC005 02/01 A2970 RMK AO2 PK WND 34026/0501 SLP096 T00220011 10061 20022 53015 FZRANO
PACM 
18nm N 
220756Z AUTO 28015KT 10SM OVC006 02/01 A2974 RMK AO2 SLP067 T00170006 FZRANO
PACZ 
19nm NW 
220809Z AUTO 03015G18KT 020V150 1 1/2SM -DZ BR BKN002 00/00 A2969 RMK AO2 SLP062
TAF
NOTAMs
Click for the latest NOTAMs
NOTAMs are issued by the DoD/FAA and will open in a separate window not controlled by AirNav.

 

 
 

Would you like to see your business listed on this page?

 If your business provides an interesting product or service to pilots, flight crews, aircraft, or users of the Chevak Airport, you should consider listing it here.  To start the listing process, click on the button below
 
Add a business
 

Other Pages about Chevak Airport

Update a link
 
Copyright © AirNav, LLC. All rights reserved. Privacy Policy  Contact